WetterOnline ( http://www.wetteronline.de )

Wetter aktuell Harzgerode

Aktuelles Wetter: Harzgerode (405m)

6-stündlich | Neueste Meldungen
Ortszeit Temperatur Wetter
Sa, 18.08. 14:00 22.3° C leicht bewölkt
Sa, 18.08. 8:00 15.9° C bedeckt
Sa, 18.08. 2:00 16.8° C bewölkt
Fr, 17.08. 20:00 20.7° C leicht bewölkt
Fr, 17.08. 14:00 23.8° C leicht bewölkt
Fr, 17.08. 8:00 18.3° C leicht bewölkt
Fr, 17.08. 2:00 15.3° C leicht bewölkt
Do, 16.08. 20:00 26.1° C leicht bewölkt
Ortszeit Temperatur Wetter
Sa, 18.08. 16:00 25.0° C wolkig
Sa, 18.08. 15:50 25.0° C wolkig
Sa, 18.08. 15:40 24.7° C wolkig
Sa, 18.08. 15:30 24.6° C bewölkt
Sa, 18.08. 15:20 24.6° C bedeckt
Sa, 18.08. 15:10 23.8° C wolkig
Sa, 18.08. 15:00 23.5° C bewölkt
Sa, 18.08. 14:30 23.1° C leicht bewölkt
Sa, 18.08. 14:00 22.3° C leicht bewölkt
Sa, 18.08. 13:30 20.0° C bewölkt
Sa, 18.08. 13:00 19.8° C bedeckt
Ortszeit Relative Feuchte Sichtweite
Sa, 18.08. 14:00 56% 18 km
Sa, 18.08. 8:00 82% 16 km
Sa, 18.08. 2:00 78% 24 km
Fr, 17.08. 20:00 61% 50 km
Fr, 17.08. 14:00 52% 9 km
Fr, 17.08. 8:00 67% 19 km
Fr, 17.08. 2:00 75% 29 km
Do, 16.08. 20:00 39% 50 km
Ortszeit Relative Feuchte Sichtweite
Sa, 18.08. 16:00 39% 16 km
Sa, 18.08. 15:50 39% -
Sa, 18.08. 15:40 40% -
Sa, 18.08. 15:30 43% 22 km
Sa, 18.08. 15:20 43% -
Sa, 18.08. 15:10 43% -
Sa, 18.08. 15:00 48% 21 km
Sa, 18.08. 14:30 53% 28 km
Sa, 18.08. 14:00 56% 18 km
Sa, 18.08. 13:30 60% 27 km
Sa, 18.08. 13:00 62% 35 km
Ortszeit Niederschlagsmenge Niederschlagsart
Sa, 18.08. 14:00 0.0 l/m2 in 6 Std. -
Sa, 18.08. 8:00 0.1 l/m2 in 12 Std. Regen
Sa, 18.08. 2:00 0.0 l/m2 in 6 Std. -
Fr, 17.08. 20:00 0.0 l/m2 in 12 Std. -
Fr, 17.08. 14:00 0.0 l/m2 in 6 Std. -
Fr, 17.08. 8:00 0.0 l/m2 in 12 Std. -
Fr, 17.08. 2:00 0.0 l/m2 in 6 Std. -
Do, 16.08. 20:00 0.0 l/m2 in 12 Std. -
Ortszeit Niederschlagsmenge Niederschlagsart
Sa, 18.08. 16:00 0.0 l/m2 in 1 Std. -
Sa, 18.08. 15:50 keine Meldung -
Sa, 18.08. 15:40 keine Meldung -
Sa, 18.08. 15:30 0.0 l/m2 in 1 Std. -
Sa, 18.08. 15:20 keine Meldung -
Sa, 18.08. 15:10 keine Meldung -
Sa, 18.08. 15:00 0.0 l/m2 in 1 Std. -
Sa, 18.08. 14:30 0.0 l/m2 in 1 Std. -
Sa, 18.08. 14:00 0.0 l/m2 in 1 Std. -
Sa, 18.08. 13:30 0.0 l/m2 in 1 Std. -
Sa, 18.08. 13:00 0.0 l/m2 in 1 Std. -
Ortszeit Stärke Spitze Richtung
km/h Bft. km/h Grad Sektor
Sa, 18.08. 14:00 11 2 19 160° S
Sa, 18.08. 8:00 7 2 22 350° N
Sa, 18.08. 2:00 11 2 40 350° N
Fr, 17.08. 20:00 24 4 50 340° N
Fr, 17.08. 14:00 22 4 40 340° N
Fr, 17.08. 8:00 7 2 11 360° N
Fr, 17.08. 2:00 7 2 11 240° SW
Do, 16.08. 20:00 7 2 32 170° S
Ortszeit Stärke Spitze Richtung
km/h Bft. km/h Grad Sektor
Sa, 18.08. 16:00 15 3 37 220° SW
Sa, 18.08. 15:50 15 3 - 220° SW
Sa, 18.08. 15:40 18 3 - 210° SW
Sa, 18.08. 15:30 18 3 29 230° SW
Sa, 18.08. 15:20 18 3 - 230° SW
Sa, 18.08. 15:10 18 3 - 240° SW
Sa, 18.08. 15:00 17 3 26 200° S
Sa, 18.08. 14:30 11 2 25 170° S
Sa, 18.08. 14:00 11 2 19 160° S
Sa, 18.08. 13:30 6 1 11 80° O
Sa, 18.08. 13:00 7 2 11 360° N
Ortszeit Untergrenze Bedeckung Gattung
total tief tief mittel hoch
Sa, 18.08. 14:00 1380 m 3/8 2/8 - - -
Sa, 18.08. 8:00 870 m 8/8 8/8 - - -
Sa, 18.08. 2:00 1800 m 7/8 7/8 - - -
Fr, 17.08. 20:00 7800 m 4/8 0/8 - - -
Fr, 17.08. 14:00 8400 m 5/8 0/8 - - -
Fr, 17.08. 8:00 9000 m 3/8 0/8 - - -
Fr, 17.08. 2:00 10500 m 6/8 0/8 - - -
Do, 16.08. 20:00 10500 m 3/8 0/8 - - -
Ortszeit Bedeckungsgrad in Achtel und Wolkenuntergrenze
Sa, 18.08. 16:00 6(1500m)
Sa, 18.08. 15:50 6(1500m)
Sa, 18.08. 15:40 6(1500m)
Sa, 18.08. 15:30 5(1500m) 9 9
Sa, 18.08. 15:20 9 9 9
Sa, 18.08. 15:10 5(1440m)
Sa, 18.08. 15:00 5(1380m) 6(1500m)
Sa, 18.08. 14:30 1(1110m) 4(1410m)
Sa, 18.08. 14:00 2(1380m) 3(10500m)
Sa, 18.08. 13:30 3(1050m) 7(1290m) 9
Sa, 18.08. 13:00 6(780m) 8(990m)
Ortszeit Luftdruck NN (hPa) Tendenz (hPa in 3 Std.)
Sa, 18.08. 14:00 1021 - 0,6
Sa, 18.08. 8:00 1022 + 0,7
Sa, 18.08. 2:00 1021 + 1,5
Fr, 17.08. 20:00 1016 + 0,9
Fr, 17.08. 14:00 1015 + 0,4
Fr, 17.08. 8:00 1015 + 0,7
Fr, 17.08. 2:00 1015 - 0,2
Do, 16.08. 20:00 1013 - 0,7
Ortszeit Luftdruck NN (hPa) Tendenz (hPa in 3 Std.)
Sa, 18.08. 16:00 1019 - 1,4
Sa, 18.08. 15:50 1019 keine Meldung
Sa, 18.08. 15:40 1019 keine Meldung
Sa, 18.08. 15:30 1020 - 1,4
Sa, 18.08. 15:20 1020 keine Meldung
Sa, 18.08. 15:10 1020 keine Meldung
Sa, 18.08. 15:00 1020 - 1,0
Sa, 18.08. 14:30 1021 - 0,5
Sa, 18.08. 14:00 1021 - 0,6
Sa, 18.08. 13:30 1022 - 0,1
Sa, 18.08. 13:00 1022 + 0,4
Ortszeit Schneehöhe (cm)
Sa, 18.08. 14:00 -
Sa, 18.08. 8:00 -
Sa, 18.08. 2:00 -
Fr, 17.08. 20:00 -
Fr, 17.08. 14:00 -
Fr, 17.08. 8:00 -
Fr, 17.08. 2:00 -
Do, 16.08. 20:00 -
Ortszeit Schneehöhe (cm)
Sa, 18.08. 16:00 -
Sa, 18.08. 15:50 -
Sa, 18.08. 15:40 -
Sa, 18.08. 15:30 -
Sa, 18.08. 15:20 -
Sa, 18.08. 15:10 -
Sa, 18.08. 15:00 -
Sa, 18.08. 14:30 -
Sa, 18.08. 14:00 -
Sa, 18.08. 13:30 -
Sa, 18.08. 13:00 -
Link zu dieser Seite / Seite empfehlen

Das Wetter in ...